Regional Weather Roundup
Issued by NWS Little Rock, AR

Home | Current Version | Previous Version | Text Only | Print | Product List | Glossary On
Versions: 1 2 3 4 5 6 7 8 9 10 11 12 13 14 15 16 17 18 19 20 21 22 23 24 25 26 27 28 29 30 31 32 33 34 35 36 37 38 39 40 41 42 43 44 45 46 47 48 49 50
165
ASUS44 KLZK 072205
RWRLZK

WEATHER ROUNDUP FOR ARKANSAS
NATIONAL WEATHER SERVICE LITTLE ROCK AR
400 PM CST SUN FEB 07 2016

NOTE: "FAIR" INDICATES FEW OR NO CLOUDS BELOW 12,000 FEET WITH NO
SIGNIFICANT WEATHER AND/OR OBSTRUCTIONS TO VISIBILITY.

ARZ001-003-010-029-072300-
NORTHWEST ARKANSAS

CITY           SKY/WX    TMP DP  RH WIND       PRES   REMARKS
FAYETTEVILLE   MOSUNNY   51  29  42 NW12      30.07F
FORT SMITH     SUNNY     59  25  27 W17       30.07S
HARRISON       SUNNY     52  27  38 NW12      30.02S
BENTONVILLE    MOSUNNY   52  27  37 W13       30.08R
ROGERS         MOSUNNY   51  28  41 NW12      30.06S
SILOAM SPGS    MOSUNNY   52  27  37 NW14      30.09R
HIGHFILL       MOSUNNY   51  27  39 NW13      30.06F
SPRINGDALE     MOSUNNY  N/A N/A N/A W14       30.08S
$$

ARZ004-005-016-072300-
NORTH CENTRAL ARKANSAS

CITY           SKY/WX    TMP DP  RH WIND       PRES   REMARKS
BATESVILLE     MOSUNNY   57  25  28 W13G22    30.00F
FLIPPIN        SUNNY     57  28  33 NW14      29.99S
MTN HOME       SUNNY     54  28  36 W7G17     29.99S
$$

ARZ040-041-072300-
WEST CENTRAL ARKANSAS

CITY           SKY/WX    TMP DP  RH WIND       PRES   REMARKS
MENA           SUNNY     63  32  31 W12G17    30.06R
MOUNT IDA      SUNNY     61  29  29 SW6       30.02S
$$

ARZ009-017-025-026-028-072300-
NORTHEAST ARKANSAS

CITY           SKY/WX    TMP DP  RH WIND       PRES   REMARKS
CORNING        FAIR      59  30  33 W13       29.96S
JONESBORO      MOSUNNY   55  31  39 SW21      29.98F
NEWPORT        MOSUNNY   59  24  26 W16       30.00F
WALNUT RIDGE   MOSUNNY   57  27  30 SW15G21   29.98R
BLYTHEVILLE    CLOUDY    58  32  37 SW16G24   29.99F
$$

ARZ022-023-033-042-044-072300-
CENTRAL ARKANSAS

CITY           SKY/WX    TMP DP  RH WIND       PRES   REMARKS
LITTLE ROCK    PTSUNNY   61  28  28 SW12      30.03F
N LITTLE ROCK  PTSUNNY   58  28  31 SW9G16    30.03F
JACKSONVILLE   PTSUNNY   59  27  28 SW15      30.02S
SEARCY         PTSUNNY   59  28  31 SW8       30.03S
HOT SPRINGS    SUNNY     59  29  31 W13       30.05S
RUSSELLVILLE   CLOUDY    57  31  37 NW15      30.04R
CLINTON        FAIR      55  28  35 SW8       30.02R
$$

ARZ036-072300-
EAST ARKANSAS

CITY           SKY/WX    TMP DP  RH WIND       PRES   REMARKS
WEST MEMPHIS   PTSUNNY   57  31  37 SW14G22   30.01F
$$

ARZ050-053-066-070-073-072300-
SOUTHWEST ARKANSAS

CITY           SKY/WX    TMP DP  RH WIND       PRES   REMARKS
ARKADELPHIA    FAIR      62  31  31 W10       30.07F
CAMDEN         SUNNY     64  21  19 W8        30.07F
TEXARKANA      SUNNY     61  30  31 SW9       30.08F
EL DORADO      SUNNY     61  24  24 SW8       30.09F
DE QUEEN       SUNNY     62  34  35 W9        30.07S
$$

ARZ056-057-069-072300-
SOUTHEAST ARKANSAS

CITY           SKY/WX    TMP DP  RH WIND       PRES   REMARKS
PINE BLUFF     MOSUNNY   59  27  29 SW14      30.05F
STUTTGART      MOSUNNY   57  30  35 SW13      30.04F
MONTICELLO     SUNNY     62  26  25 W10       30.06F

$$






USA.gov is the U.S. government's official web portal to all federal, state and local government web resources and services.